FENGYUN 1C DEB, 31323

Orbit data source: Space-Track

FENGYUN 1C DEB, 31323 is space debris in SSO originally from a launch on Mon, 10 May 1999 UTC launched from the Taiyaun Space Center, China (TSC). Fengyun 1C debris stems from the Chinese weather satellite Fengyun-1C, which was intentionally destroyed by a Chinese anti-satellite missile in 2007. This event dramatically increased the amount of space debris, with thousands of trackable fragments posing hazards to satellites and human spaceflight. The Fengyun 1C debris cloud has become a focal point in discussions about space sustainability and the need for international regulations to prevent the creation of new debris.

Loading next visibility...
Identifier
31323, 1999-025BQB
Orbit
SSO
Country
Flag of CNCN / PRC
Related business
Manufacturer
Unknown
Mission
Spacecraft
Bus & Motor
Unknown
Mass
Unknown
Launch date (UTC)
1999-05-10 (27 years ago)
Launch vehicle
Unknown
Launch site
Taiyaun Space Center, China (TSC)
Object type
Payload
Rocket body
Debris
Shape & HBR
Unknown shape, 0.1 m
Radar Cross Section
Small (<0.1 m²)

Expand to show TLE details & history
Last TLE update: 1 week ago

TLE from 1 week ago
0 FENGYUN 1C DEB
1 31323U 99025BQB 26151.93931635  .00003321  00000-0  13323-2 0  9994
2 31323  99.4048 208.6155 0028856 312.3151  47.5584 14.28775134664102
Epoch: 2026-05-31T22:32Z
TLE epoch observation values (Epoch: 2026-05-31T22:32:36.932Z)
Latitude
0.00004°
Longitude
-18.97219°
Altitude
784.791 km
Speed
7.469 km/s
True Right ascension
13h 54m 27s
True Declination
0° 00' 00"
Sunlit
Object was in full shadow at epoch
Visualization orbit readout
Latitude
Unknown
Longitude
Unknown
Altitude
Unknown
Speed
Unknown
Apparent Right ascension
Unknown
Apparent Declination
Unknown
Sunlit
N/A
Visualization observer readout
Local Sidereal Time
03:11:08
Azimuth
Unknown
Elevation
Unknown
Doppler factor
Unknown
Orbital elements
Apogee altitude
813.703 km
Perigee altitude
772.316 km
Semi-major axis
7,171.147 km
Eccentricity
0.00289
Inclination
99.4048°
RAAN
208.6155°
Arg. of periapsis
312.3151°
True anomaly
47.80301°
Mean anomaly
47.5584°
Eccentric anomaly
47.68065°
Mean motion
3.57405 °/min
Orbital period
100.73 mins
BSTAR
0.0013323
Loading maneuver chart data...
Computing Atmospheric mass density...

Documentation

Showing up to 5 results
|